[[{"header":{"parameterUnit":"m.s-1","parameterCategory":1,"la1":30.2991,"la2":30.254,"lo1":-89.0895,"lo2":-89.0444,"dy":0.0017,"dx":0.0017,"nx":28,"ny":28,"refTime":"2024-06-30T21:00:00:Z","depth":0,"parameterNumber":2,"parameterNumberName":"U-component_of_WINDS"},"data":[0,0,0,0,0,0,0,0,0,0,0,0,0,0,0,0,0,0,0,0,0,0,0,0,0,0,0,0,0,0,0,0,0,0,0,0,0,0,0,0,0,0,0,0,0,0,0,0,0,0,0,0,0,0,0,0,0,0,-1.9818,-1.9818,0,-1.9798,-1.9798,-1.9798,-1.98,-1.9801,-1.9801,-1.9801,-1.978,-1.9779,-1.9778,0,0,0,0,0,0,0,0,0,0,0,0,0,-1.9859,-1.9858,-1.9818,-1.9818,-1.9818,-1.9798,-1.9798,-1.9798,-1.98,-1.9801,-1.9801,-1.9802,-1.978,-1.9779,-1.9778,0,0,0,0,0,0,0,0,0,0,0,0,0,-1.984,-1.9858,-1.9818,-1.9817,-1.9816,-1.9798,-1.9798,-1.9798,-1.98,-1.9801,-1.9801,-1.9802,-1.978,-1.9779,-1.9778,-1.9759,0,0,-1.9773,-1.9773,0,0,0,0,0,0,0,0,-1.9841,-1.9839,-1.9817,-1.9817,-1.9816,-1.9802,-1.9804,-1.9785,-1.98,-1.9806,-1.9801,-1.9802,-1.9787,-1.9785,-1.978,-1.9758,-1.9757,-1.9773,-1.9773,-1.9772,-1.9772,0,0,0,0,0,0,0,-1.9842,-1.9839,-1.981,-1.9817,-1.9816,-1.9817,-1.9815,-1.9801,-1.9794,-1.9806,-1.9806,-1.9804,-1.9786,-1.9781,-1.9779,-1.9757,-1.9773,-1.9772,-1.9771,-1.9771,-1.9721,-1.972,0,0,0,0,0,0,-1.9844,-1.984,-1.9811,-1.981,-1.983,-1.9816,-1.9814,-1.9806,-1.9794,-1.9793,-1.9803,-1.9804,-1.9783,-1.9781,-1.9779,-1.9757,-1.9772,-1.9771,-1.977,-1.9721,-1.9721,-1.972,0,0,0,0,0,0,-1.9845,-1.9841,-1.9812,-1.9825,-1.9821,-1.9815,-1.9807,-1.9806,-1.98,-1.9792,-1.9791,-1.9799,-1.9784,-1.9781,-1.9764,-1.9756,-1.977,-1.9769,-1.9722,-1.9721,-1.972,-1.9713,0,0,0,0,0,0,-1.9846,-1.9842,-1.9835,-1.9825,-1.9821,-1.9798,-1.9806,-1.9805,-1.9798,-1.9799,-1.9788,-1.9786,-1.9784,-1.9766,-1.9763,-1.9755,-1.9768,-1.9723,-1.9722,-1.9721,-1.9714,-1.9712,-1.9711,0,0,0,0,0,-1.9848,-1.9833,-1.9834,-1.9831,-1.9812,-1.9797,-1.9795,-1.9792,-1.9798,-1.979,-1.9785,-1.9787,-1.9758,-1.9765,-1.9761,-1.9752,-1.9723,-1.9722,-1.9721,-1.9715,-1.9713,-1.9711,0,0,0,0,0,0,-1.984,-1.9831,-1.9833,-1.9815,-1.9807,-1.9798,-1.9788,-1.979,-1.978,-1.9781,-1.9778,-1.9775,-1.9759,-1.9754,-1.9762,-1.9735,-1.9741,-1.9739,-1.9738,-1.9736,-1.9734,-1.9736,-1.9767,0,0,0,0,0,-1.9837,-1.9827,-1.9819,-1.9804,-1.98,-1.9795,-1.9789,-1.9788,-1.9779,-1.9776,-1.9769,-1.9761,-1.975,-1.9743,-1.9732,-1.9714,-1.9712,-1.9706,-1.9705,-1.9703,-1.9701,-1.9692,-1.969,-1.9716,-1.9716,-1.9716,0,0,-1.9829,-1.9823,-1.9816,-1.9802,-1.9796,-1.9785,-1.9792,-1.978,-1.9772,-1.9774,-1.9758,-1.9754,-1.9744,-1.9727,-1.9719,-1.9722,-1.9694,-1.9702,-1.9701,-1.9699,-1.9691,-1.9688,-1.9686,-1.9716,-1.9716,-1.9716,0,0,-1.981,-1.9804,-1.9791,-1.9785,-1.9776,-1.9773,-1.977,-1.9762,-1.9759,-1.9744,-1.9745,-1.9736,-1.9717,-1.971,-1.9705,-1.9685,-1.9686,-1.9682,-1.9672,-1.9663,-1.9661,-1.9659,-1.9652,-1.965,-1.968,-1.968,-1.968,0,-1.9801,-1.9785,-1.9784,-1.9772,-1.9766,-1.9769,-1.9756,-1.975,-1.9738,-1.9733,-1.9737,-1.9715,-1.9709,-1.9691,-1.9686,-1.9681,-1.9678,-1.9682,-1.9662,-1.966,-1.9658,-1.9651,-1.9649,-1.9679,-1.9679,-1.968,-1.968,0,-1.9775,-1.9764,-1.9754,-1.9744,-1.9737,-1.9724,-1.9722,-1.9715,-1.9715,-1.9712,-1.9697,-1.969,-1.9679,-1.9674,-1.9674,-1.9657,-1.9659,-1.9662,-1.9669,-1.9655,-1.9649,-1.9646,-1.9679,-1.9679,-1.9679,-1.9679,0,0,-1.9748,-1.9739,-1.9735,-1.9731,-1.9722,-1.9714,-1.9702,-1.9692,-1.9686,-1.9678,-1.9668,-1.9654,-1.9657,-1.9651,-1.965,-1.9642,-1.9627,-1.9646,-1.9646,-1.9643,-1.9608,-1.9606,-1.9603,-1.9629,-1.9628,-1.9628,-1.9609,0,-1.9727,-1.9707,-1.9707,-1.9688,-1.9678,-1.9682,-1.9671,-1.9665,-1.9663,-1.9654,-1.9651,-1.964,-1.9646,-1.9642,-1.9635,-1.9631,-1.962,-1.9632,-1.9619,-1.9619,-1.9621,-1.9599,-1.9596,-1.9579,-1.9607,-1.9606,-1.9606,0,-1.97,-1.9693,-1.9673,-1.9667,-1.9663,-1.9654,-1.9645,-1.9637,-1.9631,-1.9629,-1.9623,-1.9624,-1.9612,-1.962,-1.9604,-1.9613,-1.9608,-1.9605,-1.9604,-1.9602,-1.9611,-1.9597,-1.9573,-1.957,-1.9602,-1.9603,-1.9603,0,-1.9683,-1.9668,-1.9655,-1.9651,-1.9644,-1.9637,-1.9634,-1.9628,-1.9623,-1.9615,-1.9611,-1.9602,-1.9597,-1.9591,-1.9589,-1.9595,-1.9573,-1.9581,-1.9572,-1.9572,-1.9566,-1.9566,-1.9541,-1.9564,-1.9564,-1.9564,-1.9564,0,-1.9659,-1.9647,-1.9647,-1.9639,-1.9626,-1.9626,-1.9613,-1.961,-1.9605,-1.9596,-1.9599,-1.9591,-1.959,-1.9581,-1.958,-1.9568,-1.9565,-1.9564,-1.9564,-1.9563,-1.9563,-1.9559,-1.956,-1.9563,-1.9564,-1.9564,-1.9564,0,-1.9637,-1.9637,-1.9622,-1.9618,-1.9616,-1.9607,-1.9603,-1.9595,-1.9593,-1.9582,-1.958,-1.9577,-1.9568,-1.9566,-1.9554,-1.9554,-1.9539,-1.954,-1.9541,-1.9541,-1.9532,-1.9533,-1.9503,-1.9499,-1.9524,-1.9524,-1.9524,0,-1.9622,-1.9613,-1.9608,-1.9603,-1.96,-1.9591,-1.9586,-1.9586,-1.9581,-1.9573,-1.9567,-1.9558,-1.955,-1.9535,-1.9532,-1.9524,-1.9524,-1.9514,-1.9523,-1.9523,-1.9524,-1.9524,-1.9524,-1.9512,-1.9512,-1.9512,-1.9512,0,-1.9595,-1.9596,-1.9588,-1.9581,-1.9575,-1.9569,-1.9564,-1.9559,-1.9559,-1.9553,-1.9544,-1.9538,-1.9528,-1.9519,-1.9511,-1.9507,-1.9509,-1.9509,-1.9507,-1.9506,-1.9507,-1.9506,-1.9536,-1.951,-1.951,-1.951,-1.951,-1.951,-1.9576,-1.9569,-1.9564,-1.9556,-1.9553,-1.9548,-1.9541,-1.9539,-1.9532,-1.9523,-1.9524,-1.9514,-1.9509,-1.9499,-1.9495,-1.9487,-1.949,-1.9487,-1.9485,-1.9484,-1.9484,-1.9509,-1.9486,-1.9486,-1.9486,-1.9486,-1.9486,0,-1.9549,-1.9547,-1.954,-1.9533,-1.9527,-1.9531,-1.9526,-1.952,-1.9511,-1.9507,-1.95,-1.949,-1.9482,-1.9479,-1.9471,-1.9466,-1.9467,-1.9464,-1.9464,-1.9463,-1.9481,-1.9484,-1.9463,-1.9463,-1.9463,-1.9463,-1.9463,-1.9463,-1.9535,-1.9523,-1.9523,-1.951,-1.9508,-1.9498,-1.9495,-1.9491,-1.9487,-1.9476,-1.947,-1.9469,-1.9465,-1.9457,-1.945,-1.9449,-1.9446,-1.9443,-1.9442,-1.9459,-1.9462,-1.9464,-1.9467,-1.9442,-1.9442,-1.9425,-1.9425,-1.9425]},{"header":{"parameterUnit":"m.s-1","parameterCategory":1,"la1":30.2991,"la2":30.254,"lo1":-89.0895,"lo2":-89.0444,"dy":0.0017,"dx":0.0017,"nx":28,"ny":28,"refTime":"2024-06-30T21:00:00:Z","depth":0,"parameterNumber":3,"parameterNumberName":"V-component_of_WINDS"},"data":[0,0,0,0,0,0,0,0,0,0,0,0,0,0,0,0,0,0,0,0,0,0,0,0,0,0,0,0,0,0,0,0,0,0,0,0,0,0,0,0,0,0,0,0,0,0,0,0,0,0,0,0,0,0,0,0,0,0,-0.4017,-0.4017,0,-0.4015,-0.4015,-0.4015,-0.3982,-0.3981,-0.3981,-0.398,-0.3977,-0.3978,-0.3979,0,0,0,0,0,0,0,0,0,0,0,0,0,-0.3993,-0.3994,-0.4017,-0.4017,-0.4017,-0.4015,-0.4015,-0.4015,-0.3982,-0.3981,-0.398,-0.398,-0.3977,-0.3978,-0.3979,0,0,0,0,0,0,0,0,0,0,0,0,0,-0.3999,-0.3994,-0.4017,-0.4001,-0.3999,-0.4015,-0.4015,-0.4015,-0.3983,-0.3981,-0.398,-0.3979,-0.3977,-0.3978,-0.3979,-0.401,0,0,-0.3982,-0.3982,0,0,0,0,0,0,0,0,-0.3998,-0.4,-0.4003,-0.4002,-0.4,-0.3997,-0.4005,-0.4013,-0.3983,-0.3989,-0.398,-0.3978,-0.3985,-0.3985,-0.3988,-0.401,-0.401,-0.3982,-0.3983,-0.3983,-0.3983,0,0,0,0,0,0,0,-0.3998,-0.3999,-0.4016,-0.4003,-0.4001,-0.3993,-0.3993,-0.4007,-0.3994,-0.3988,-0.3986,-0.3986,-0.3984,-0.3987,-0.3987,-0.4009,-0.3982,-0.3983,-0.3984,-0.3984,-0.4058,-0.4059,0,0,0,0,0,0,-0.4,-0.3999,-0.4016,-0.4016,-0.3996,-0.3995,-0.3994,-0.4,-0.3994,-0.3991,-0.3987,-0.3985,-0.3985,-0.3986,-0.3987,-0.4024,-0.3983,-0.3984,-0.3985,-0.4056,-0.4058,-0.406,0,0,0,0,0,0,-0.4,-0.4002,-0.4016,-0.4007,-0.4008,-0.3996,-0.4003,-0.4,-0.4003,-0.3993,-0.399,-0.3992,-0.3984,-0.3986,-0.4005,-0.4023,-0.3985,-0.3986,-0.4055,-0.4057,-0.4059,-0.4097,0,0,0,0,0,0,-0.3999,-0.4002,-0.4014,-0.4008,-0.4009,-0.4034,-0.4004,-0.4001,-0.4005,-0.4001,-0.3997,-0.3995,-0.3984,-0.4003,-0.4006,-0.4024,-0.3986,-0.4053,-0.4056,-0.4058,-0.4094,-0.41,-0.4105,0,0,0,0,0,-0.3998,-0.4024,-0.4014,-0.4016,-0.4023,-0.4035,-0.4036,-0.4022,-0.4006,-0.4018,-0.4012,-0.3995,-0.4021,-0.4005,-0.4008,-0.4027,-0.4052,-0.4055,-0.4058,-0.4092,-0.4099,-0.4105,0,0,0,0,0,0,-0.4032,-0.4023,-0.4012,-0.4037,-0.4037,-0.403,-0.4044,-0.403,-0.4035,-0.4032,-0.4015,-0.4014,-0.4036,-0.4033,-0.4016,-0.4057,-0.4033,-0.4037,-0.4058,-0.4065,-0.4071,-0.4071,-0.3987,0,0,0,0,0,-0.4043,-0.4053,-0.4044,-0.4067,-0.4068,-0.4056,-0.406,-0.405,-0.405,-0.405,-0.4045,-0.4045,-0.4053,-0.4059,-0.4065,-0.4093,-0.4092,-0.4107,-0.4113,-0.4118,-0.4121,-0.4137,-0.4144,-0.4069,-0.4069,-0.4069,0,0,-0.4064,-0.406,-0.4068,-0.4074,-0.4073,-0.4084,-0.4056,-0.4069,-0.4078,-0.4051,-0.407,-0.4066,-0.4065,-0.4089,-0.4099,-0.4087,-0.4142,-0.4121,-0.4125,-0.4126,-0.4141,-0.4148,-0.4154,-0.4071,-0.4071,-0.4071,0,0,-0.411,-0.4107,-0.4127,-0.4126,-0.4125,-0.4117,-0.4122,-0.4117,-0.4113,-0.4131,-0.4112,-0.4122,-0.4136,-0.4136,-0.4138,-0.4184,-0.417,-0.4187,-0.4217,-0.4232,-0.4238,-0.4243,-0.4261,-0.4267,-0.419,-0.419,-0.419,0,-0.4137,-0.4153,-0.4138,-0.4153,-0.4156,-0.4133,-0.4153,-0.4153,-0.4154,-0.4157,-0.4143,-0.4161,-0.4159,-0.4183,-0.4194,-0.4196,-0.4202,-0.4188,-0.4238,-0.4243,-0.4248,-0.4264,-0.4271,-0.4193,-0.4192,-0.4192,-0.4192,0,-0.4187,-0.4199,-0.4214,-0.4217,-0.4222,-0.4239,-0.4226,-0.4233,-0.4222,-0.4216,-0.4234,-0.4231,-0.4237,-0.4241,-0.4231,-0.4265,-0.4257,-0.4241,-0.4218,-0.4257,-0.4273,-0.4279,-0.4196,-0.4195,-0.4194,-0.4194,0,0,-0.4254,-0.4248,-0.4254,-0.4256,-0.4253,-0.4262,-0.4278,-0.4284,-0.4291,-0.4292,-0.4306,-0.4318,-0.4304,-0.4306,-0.4295,-0.4308,-0.4346,-0.4291,-0.429,-0.4302,-0.4385,-0.4398,-0.4405,-0.4336,-0.4337,-0.4338,-0.4385,0,-0.4299,-0.4327,-0.4314,-0.4343,-0.4354,-0.4332,-0.4346,-0.4346,-0.4341,-0.4349,-0.4343,-0.4353,-0.4332,-0.4333,-0.4345,-0.4339,-0.4363,-0.4335,-0.4349,-0.435,-0.4352,-0.4413,-0.4427,-0.4472,-0.4391,-0.4392,-0.4393,0,-0.4355,-0.436,-0.4391,-0.4387,-0.4391,-0.4404,-0.4409,-0.4417,-0.4417,-0.4412,-0.4415,-0.4401,-0.4416,-0.4392,-0.4414,-0.4396,-0.44,-0.4398,-0.44,-0.4401,-0.4375,-0.4418,-0.4485,-0.4493,-0.4402,-0.4401,-0.44,0,-0.4403,-0.4417,-0.4437,-0.4439,-0.4434,-0.4444,-0.4442,-0.4441,-0.4446,-0.445,-0.4453,-0.4459,-0.4462,-0.4467,-0.4455,-0.4439,-0.4479,-0.4454,-0.4476,-0.4477,-0.4487,-0.4487,-0.4557,-0.4488,-0.4488,-0.4487,-0.4487,0,-0.4456,-0.4475,-0.4459,-0.4471,-0.4493,-0.4478,-0.4499,-0.4495,-0.4494,-0.4506,-0.4487,-0.4498,-0.4481,-0.4491,-0.4481,-0.4502,-0.4503,-0.45,-0.4497,-0.4502,-0.4503,-0.4506,-0.4503,-0.4489,-0.4489,-0.4488,-0.4488,0,-0.4513,-0.4503,-0.4524,-0.4518,-0.4517,-0.4533,-0.4528,-0.454,-0.4532,-0.4547,-0.455,-0.4539,-0.455,-0.4538,-0.4547,-0.4541,-0.4569,-0.4561,-0.4569,-0.4567,-0.4591,-0.459,-0.4667,-0.4677,-0.46,-0.4601,-0.4602,0,-0.4548,-0.4563,-0.4559,-0.4565,-0.4565,-0.4576,-0.4581,-0.4566,-0.4572,-0.4573,-0.4585,-0.4593,-0.46,-0.4618,-0.4611,-0.4618,-0.4611,-0.4638,-0.4612,-0.4617,-0.4613,-0.4613,-0.4615,-0.4643,-0.4644,-0.4645,-0.4646,0,-0.4611,-0.4605,-0.4613,-0.462,-0.4627,-0.4631,-0.4634,-0.464,-0.4625,-0.4633,-0.4643,-0.4648,-0.4658,-0.4668,-0.4673,-0.4671,-0.4657,-0.4654,-0.466,-0.4666,-0.467,-0.4669,-0.4585,-0.4652,-0.4652,-0.4651,-0.4651,-0.4651,-0.4659,-0.4672,-0.4671,-0.4681,-0.4682,-0.4685,-0.4696,-0.469,-0.4699,-0.4706,-0.4697,-0.471,-0.471,-0.4716,-0.4716,-0.4726,-0.4715,-0.4723,-0.4725,-0.4728,-0.4732,-0.4668,-0.4727,-0.4727,-0.4726,-0.4726,-0.4726,0,-0.4723,-0.4721,-0.473,-0.4735,-0.4743,-0.4728,-0.4731,-0.4738,-0.4751,-0.4752,-0.4759,-0.4771,-0.478,-0.4774,-0.4782,-0.4791,-0.4785,-0.4794,-0.4794,-0.4794,-0.4741,-0.4736,-0.4799,-0.4799,-0.4799,-0.4799,-0.4799,-0.4799,-0.4757,-0.4778,-0.4772,-0.4793,-0.4791,-0.4805,-0.4808,-0.4811,-0.4812,-0.4827,-0.4834,-0.483,-0.4828,-0.4836,-0.4844,-0.4841,-0.4846,-0.4858,-0.4854,-0.4805,-0.4798,-0.4791,-0.4786,-0.4859,-0.4859,-0.4906,-0.4906,-0.4906]}]]